DECAM EDDE-

Flight info

Callsign DECAM
Flight time N/A
Altitude
Route
Aircraft SR22

Departure

Time 2026-04-28 12:04
Airport Erfurt-Weimar Airport (EDDE)

Arrival

Time N/A
Airport -
Time Latitude Longitude Altitude Speed Heading
2026-04-28 11:56 50.97553 10.96713 1031 ft 0 kts 98°
2026-04-28 11:57 50.97551 10.96742 1031 ft 7 kts 97°
2026-04-28 11:58 50.97602 10.96791 1031 ft 11 kts
2026-04-28 11:58 50.97689 10.96775 1031 ft 15 kts 294°
2026-04-28 11:58 50.97704 10.96584 1032 ft 21 kts 277°
2026-04-28 11:58 50.97725 10.96337 1034 ft 21 kts 276°
2026-04-28 11:59 50.97747 10.96084 1035 ft 25 kts 275°
2026-04-28 11:59 50.97768 10.95796 1036 ft 26 kts 278°
2026-04-28 11:59 50.97791 10.95503 1038 ft 22 kts 276°
2026-04-28 11:59 50.97814 10.95229 1039 ft 28 kts 278°
2026-04-28 12:00 50.97837 10.94982 1040 ft 15 kts 300°
2026-04-28 12:00 50.97940 10.94897 1041 ft 15 kts 336°
2026-04-28 12:00 50.97958 10.94884 1042 ft 0 kts 335°
2026-04-28 12:02 50.97982 10.94867 1042 ft 14 kts 335°
2026-04-28 12:02 50.98062 10.94846 1043 ft 9 kts 76°
2026-04-28 12:03 50.98062 10.94861 1043 ft 0 kts 98°
2026-04-28 12:03 50.98028 10.95259 1058 ft 67 kts 99°
2026-04-28 12:03 50.97931 10.96088 1271 ft 86 kts 101°
2026-04-28 12:03 50.97816 10.97077 1585 ft 96 kts 93°
2026-04-28 12:04 50.97743 10.98157 2010 ft 98 kts 90°
2026-04-28 12:04 50.97780 10.99310 2092 ft 110 kts 61°
2026-04-28 12:04 50.98503 10.99748 2149 ft 130 kts 356°
2026-04-28 12:04 50.99315 10.98900 2176 ft 147 kts 323°
2026-04-28 12:05 51.00056 10.97755 2240 ft 152 kts 324°
2026-04-28 12:05 51.00846 10.96633 2296 ft 149 kts 333°
2026-04-28 12:05 51.01783 10.96090 2337 ft 143 kts
2026-04-28 12:05 51.02770 10.96017 2269 ft 148 kts 348°
2026-04-28 12:06 51.03601 10.94871 2202 ft 163 kts 316°
2026-04-28 12:06 51.04432 10.93811 2293 ft 147 kts 340°
2026-04-28 12:06 51.05400 10.93277 2119 ft 149 kts 349°
2026-04-28 12:06 51.06361 10.92623 2139 ft 151 kts 341°
2026-04-28 12:07 51.07325 10.91962 2144 ft 150 kts 345°
2026-04-28 12:07 51.08275 10.91414 2124 ft 145 kts 347°
2026-04-28 12:07 51.09218 10.90860 2054 ft 143 kts 345°
2026-04-28 12:07 51.10138 10.90202 1992 ft 145 kts 341°
2026-04-28 12:08 51.11079 10.89568 2136 ft 149 kts 345°
2026-04-28 12:08 51.12068 10.88911 2193 ft 161 kts 343°
2026-04-28 12:08 51.13133 10.88261 2211 ft 169 kts 345°
2026-04-28 12:08 51.14245 10.87585 2202 ft 166 kts 346°
2026-04-28 12:09 51.15310 10.86926 2284 ft 166 kts 345°
2026-04-28 12:09 51.16391 10.86265 2410 ft 166 kts 345°
2026-04-28 12:09 51.17463 10.85569 2542 ft 166 kts 343°
2026-04-28 12:09 51.18534 10.84886 2676 ft 165 kts 344°
2026-04-28 12:10 51.19589 10.84225 2828 ft 165 kts 344°
2026-04-28 12:10 51.20660 10.83549 2970 ft 164 kts 346°
2026-04-28 12:10 51.21714 10.82883 3226 ft 162 kts 344°
2026-04-28 12:10 51.22749 10.82215 3477 ft 160 kts 343°
2026-04-28 12:11 51.23794 10.81648 3708 ft 155 kts
2026-04-28 12:11 51.24741 10.82154 3940 ft 142 kts 48°
2026-04-28 12:11 51.25246 10.83482 4183 ft 137 kts 64°
2026-04-28 12:11 51.25681 10.84811 4433 ft 134 kts 64°
2026-04-28 12:12 51.26117 10.86094 4695 ft 133 kts 64°
2026-04-28 12:12 51.26551 10.87423 4950 ft 136 kts 66°
2026-04-28 12:12 51.27007 10.88756 5217 ft 138 kts 62°
2026-04-28 12:12 51.27489 10.90097 5460 ft 137 kts 63°
2026-04-28 12:13 51.27960 10.91468 5722 ft 144 kts 62°
2026-04-28 12:13 51.28444 10.92877 5978 ft 144 kts 63°
2026-04-28 12:13 51.28907 10.94287 6232 ft 140 kts 64°
2026-04-28 12:13 51.29295 10.95699 6483 ft 141 kts 77°
2026-04-28 12:14 51.29184 10.97298 6707 ft 148 kts 99°
2026-04-28 12:14 51.29004 10.98930 6948 ft 150 kts 94°
2026-04-28 12:14 51.28869 11.00595 7197 ft 152 kts 94°
2026-04-28 12:14 51.28727 11.02254 7444 ft 147 kts 93°
2026-04-28 12:15 51.28611 11.03880 7682 ft 150 kts 93°
2026-04-28 12:15 51.28468 11.05556 7936 ft 154 kts 94°
2026-04-28 12:15 51.28335 11.07251 8175 ft 154 kts 95°
2026-04-28 12:15 51.28197 11.08960 8441 ft 157 kts 93°
2026-04-28 12:16 51.28051 11.10707 8471 ft 154 kts 97°
2026-04-28 12:16 51.27895 11.12379 8276 ft 149 kts 94°
2026-04-28 12:16 51.27780 11.14134 8284 ft 166 kts 92°
2026-04-28 12:16 51.27638 11.16010 8284 ft 172 kts 93°
2026-04-28 12:17 51.27486 11.17949 8285 ft 180 kts 95°
2026-04-28 12:17 51.27317 11.19925 8296 ft 183 kts 94°
2026-04-28 12:17 51.27147 11.21977 8288 ft 188 kts 93°
2026-04-28 12:17 51.26981 11.24024 8290 ft 183 kts 95°
2026-04-28 12:18 51.26812 11.26036 8280 ft 181 kts 94°
2026-04-28 12:18 51.26651 11.28042 8284 ft 182 kts 95°
2026-04-28 12:18 51.26492 11.30052 8281 ft 182 kts 94°
2026-04-28 12:18 51.26334 11.32010 8274 ft 178 kts 94°
2026-04-28 12:19 51.26178 11.33963 8271 ft 177 kts 94°
2026-04-28 12:19 51.26019 11.35906 8270 ft 176 kts 94°
2026-04-28 12:19 51.25859 11.37857 8271 ft 179 kts 95°
2026-04-28 12:19 51.25697 11.39832 8271 ft 178 kts 93°
2026-04-28 12:20 51.25538 11.41798 8272 ft 178 kts 94°
2026-04-28 12:20 51.25368 11.43764 8274 ft 179 kts 94°
2026-04-28 12:20 51.25212 11.45727 8276 ft 177 kts 94°
2026-04-28 12:20 51.25054 11.47661 8269 ft 177 kts 95°
2026-04-28 12:21 51.24889 11.49617 8273 ft 177 kts 94°
2026-04-28 12:21 51.24726 11.51576 8288 ft 180 kts 95°
2026-04-28 12:21 51.24485 11.53541 8265 ft 182 kts 110°
2026-04-28 12:21 51.23617 11.55029 8244 ft 186 kts 145°
2026-04-28 12:22 51.22456 11.55983 7958 ft 188 kts 151°
2026-04-28 12:22 51.21315 11.56921 7755 ft 187 kts 150°
2026-04-28 12:22 51.20165 11.57869 7495 ft 185 kts 148°
2026-04-28 12:22 51.19014 11.58775 7282 ft 179 kts 149°
2026-04-28 12:23 51.17924 11.59608 7273 ft 169 kts 151°
2026-04-28 12:23 51.16887 11.60423 7268 ft 164 kts 150°
2026-04-28 12:23 51.15877 11.61234 7273 ft 160 kts 149°
2026-04-28 12:23 51.14873 11.62003 7264 ft 158 kts 151°
2026-04-28 12:24 51.13900 11.62760 7272 ft 156 kts 150°
2026-04-28 12:24 51.12923 11.63546 7265 ft 158 kts 150°
2026-04-28 12:24 51.11941 11.64345 7268 ft 159 kts 149°
2026-04-28 12:24 51.10937 11.65092 7260 ft 157 kts 152°
2026-04-28 12:25 51.09978 11.65815 7270 ft 153 kts 151°
2026-04-28 12:25 51.09240 11.67041 7268 ft 164 kts 105°
2026-04-28 12:25 51.09027 11.68889 7291 ft 173 kts 95°
2026-04-28 12:25 51.08831 11.70753 7107 ft 174 kts 98°
2026-04-28 12:26 51.08658 11.72672 6962 ft 173 kts 96°
2026-04-28 12:26 51.08490 11.74558 6791 ft 174 kts 94°
2026-04-28 12:26 51.08678 11.76413 6616 ft 170 kts 71°
2026-04-28 12:26 51.09070 11.78190 6457 ft 169 kts 69°
2026-04-28 12:27 51.09460 11.79944 6236 ft 169 kts 70°
2026-04-28 12:27 51.09848 11.81694 6152 ft 168 kts 70°
2026-04-28 12:27 51.10255 11.83449 5978 ft 167 kts 71°
2026-04-28 12:27 51.10725 11.85115 5758 ft 164 kts 61°
2026-04-28 12:28 51.11323 11.86642 5615 ft 162 kts 57°
2026-04-28 12:28 51.11976 11.88140 5455 ft 165 kts 58°
2026-04-28 12:28 51.12577 11.89662 5275 ft 164 kts 58°
2026-04-28 12:28 51.13238 11.91141 5102 ft 164 kts 55°
2026-04-28 12:29 51.14610 11.93940 4967 ft 161 kts 55°
2026-04-28 12:29 51.15313 11.95394 4967 ft 168 kts 54°
2026-04-28 12:29 51.16032 11.96893 4962 ft 167 kts 53°
2026-04-28 12:30 51.16715 11.98323 4972 ft 156 kts 54°
2026-04-28 12:30 51.17364 11.99658 4961 ft 150 kts 53°
2026-04-28 12:30 51.18004 12.00970 4966 ft 157 kts 53°
2026-04-28 12:30 51.18672 12.02352 5033 ft 153 kts 51°
2026-04-28 12:31 51.19514 12.03400 4999 ft 157 kts 29°
2026-04-28 12:31 51.20513 12.04078 5003 ft 157 kts 28°
2026-04-28 12:31 51.21540 12.04808 5033 ft 161 kts 25°
2026-04-28 12:31 51.22613 12.05474 4666 ft 166 kts 23°
2026-04-28 12:32 51.23610 12.06236 4461 ft 154 kts 31°
2026-04-28 12:32 51.24481 12.07138 4297 ft 144 kts 38°
2026-04-28 12:32 51.25298 12.08030 4004 ft 145 kts 37°
2026-04-28 12:32 51.26108 12.08999 3783 ft 147 kts 41°
2026-04-28 12:33 51.26886 12.10092 3577 ft 150 kts 43°
2026-04-28 12:33 51.27667 12.11164 3423 ft 147 kts 43°
2026-04-28 12:33 51.28439 12.12238 3268 ft 147 kts 42°
2026-04-28 12:33 51.29221 12.13290 3018 ft 146 kts 41°
2026-04-28 12:34 51.30025 12.14271 2807 ft 146 kts 37°
2026-04-28 12:34 51.30836 12.15192 2545 ft 143 kts 37°
2026-04-28 12:34 51.31672 12.16048 2395 ft 139 kts 33°
2026-04-28 12:34 51.32492 12.16804 2248 ft 133 kts 31°
2026-04-28 12:35 51.33325 12.17465 2132 ft 135 kts 26°
2026-04-28 12:35 51.34182 12.18016 2143 ft 132 kts 23°
2026-04-28 12:35 51.35046 12.18481 2094 ft 130 kts 19°
2026-04-28 12:35 51.35938 12.18717 2001 ft 130 kts
2026-04-28 12:36 51.36841 12.18557 1935 ft 133 kts 354°
2026-04-28 12:36 51.37731 12.18162 1831 ft 135 kts 350°
2026-04-28 12:36 51.38595 12.17571 1742 ft 142 kts 320°
2026-04-28 12:36 51.39009 12.16136 1710 ft 142 kts 294°
2026-04-28 12:37 51.39330 12.14631 1716 ft 146 kts 292°
2026-04-28 12:37 51.39627 12.13092 1771 ft 145 kts 292°
2026-04-28 12:37 51.39944 12.11521 1757 ft 150 kts 295°
2026-04-28 12:37 51.40282 12.09932 1757 ft 155 kts 294°
2026-04-28 12:38 51.40666 12.08313 1755 ft 154 kts 297°
2026-04-28 12:38 51.41389 12.07210 1749 ft 141 kts 347°
2026-04-28 12:38 51.42344 12.06922 1745 ft 145 kts 354°
2026-04-28 12:38 51.43344 12.06577 1706 ft 150 kts 345°
2026-04-28 12:39 51.44093 12.05403 1688 ft 160 kts 297°
2026-04-28 12:39 51.44101 12.03611 1576 ft 165 kts 255°
2026-04-28 12:39 51.43567 12.02017 1490 ft 161 kts 219°
2026-04-28 12:39 51.42568 12.01460 1485 ft 150 kts 169°
2026-04-28 12:40 51.41557 12.01741 1482 ft 144 kts 161°
2026-04-28 12:40 51.40799 12.02615 1472 ft 133 kts 123°
2026-04-28 12:40 51.40474 12.03884 1490 ft 123 kts 85°
2026-04-28 12:40 51.40489 12.05264 1485 ft 125 kts 84°
2026-04-28 12:41 51.40536 12.06627 1485 ft 120 kts 83°
2026-04-28 12:41 51.40595 12.07965 1472 ft 120 kts 84°
2026-04-28 12:41 51.40644 12.09300 1479 ft 120 kts 82°
2026-04-28 12:41 51.40698 12.10631 1479 ft 119 kts 81°
2026-04-28 12:42 51.40765 12.11978 1474 ft 121 kts 83°
2026-04-28 12:42 51.40826 12.13340 1368 ft 121 kts 83°
2026-04-28 12:42 51.40883 12.14626 1206 ft 114 kts 83°
2026-04-28 12:42 51.40946 12.15876 1046 ft 112 kts 81°
2026-04-28 12:43 51.41002 12.17140 887 ft 114 kts 81°
2026-04-28 12:43 51.41073 12.18393 733 ft 111 kts 80°
2026-04-28 12:43 51.41121 12.19593 598 ft 105 kts 82°
2026-04-28 12:43 51.41177 12.20749 468 ft 104 kts 82°
2026-04-28 12:44 51.41232 12.21863 451 ft 96 kts 86°
2026-04-28 12:44 51.41286 12.23016 560 ft 115 kts 82°
2026-04-28 12:44 51.41359 12.24362 757 ft 125 kts 82°
2026-04-28 12:44 51.41572 12.25674 1020 ft 122 kts 45°